Location: Unspecified
(20.0000°S, 0.0000°E)
Time: 09:47:43
(UTC+00:00)

KKS-1 - Pass Details

Date: 02 September 2019
Orbit: 638 x 649 km, 98.3° (Epoch: 15 September)

Event Time Altitude Azimuth Distance (km) Brightness Sun altitude
Rises 19:08:56 0° 357° (N) 2,946 ? -18.9°
Reaches altitude 10° 19:11:15 10° 349° (N) 2,042 ? -19.4°
Maximum altitude 19:15:24 39° 280° (W) 974 ? -20.4°
Drops below altitude 10° 19:19:36 10° 211° (SSW) 2,059 ? -21.4°
Sets 19:21:57 0° 203° (SSW) 2,974 ? -21.9°
